| time (UTC) | temp C | wind direction | speed KPH | gust KPH | rain 1hr cm | rain 24hr cm | rain mn cm | humidity % | barometer mb |
| 20260905202343 | 33 | 135 | 3.2 | 9.7 | 0.00 | 0.00 | 0.00 | 56 | 1011.7 |
| 20260905201349 | 33 | 139 | 3.2 | 9.7 | 0.00 | 0.00 | 0.00 | 54 | 1011.8 |
| 20260905200350 | 35 | 130 | 4.8 | 6.4 | 0.00 | 0.00 | 0.00 | 51 | 1011.9 |
| 20260905195334 | 35 | 122 | 1.6 | 3.2 | 0.00 | 0.00 | 0.00 | 52 | 1012.1 |
| 20260905194324 | 35 | 116 | 1.6 | 6.4 | 0.00 | 0.00 | 0.00 | 53 | 1012.2 |
| 20260905193328 | 33 | 300 | 1.6 | 4.8 | 0.00 | 0.00 | 0.00 | 57 | 1012.4 |
| 20260905192335 | 33 | 352 | 1.6 | 6.4 | 0.00 | 0.00 | 0.00 | 56 | 1012.5 |
| 20260905191340 | 33 | 333 | 1.6 | 4.8 | 0.00 | 0.00 | 0.00 | 55 | 1012.6 |
| 20260905190325 | 34 | 64 | 0.0 | 6.4 | 0.00 | 0.00 | 0.00 | 56 | 1012.7 |
| 20260905185329 | 33 | 195 | 1.6 | 8.0 | 0.00 | 0.00 | 0.00 | 58 | 1012.8 |
| 20260905184335 | 33 | 230 | 1.6 | 3.2 | 0.00 | 0.00 | 0.00 | 58 | 1013.0 |
| 20260905183336 | 33 | 80 | 0.0 | 3.2 | 0.00 | 0.00 | 0.00 | 58 | 1013.2 |
| 20260905182326 | 34 | 314 | 1.6 | 6.4 | 0.00 | 0.00 | 0.00 | 56 | 1013.3 |
| 20260905181354 | 34 | 321 | 1.6 | 12.9 | 0.00 | 0.00 | 0.00 | 57 | 1013.5 |
| 20260905180336 | 33 | 316 | 1.6 | 9.7 | 0.00 | 0.00 | 0.00 | 60 | 1013.7 |
| 20260905175341 | 33 | 281 | 1.6 | 6.4 | 0.00 | 0.00 | 0.00 | 56 | 1014.0 |
| 20260905174325 | 33 | 360 | 0.0 | 3.2 | 0.00 | 0.00 | 0.00 | 60 | 1014.2 |
| 20260905173330 | 32 | 327 | 3.2 | 6.4 | 0.00 | 0.00 | 0.00 | 62 | 1014.3 |
| 20260905172336 | 32 | 258 | 1.6 | 4.8 | 0.00 | 0.00 | 0.00 | 63 | 1014.3 |
| 20260905171326 | 33 | 107 | 0.0 | 4.8 | 0.00 | 0.00 | 0.00 | 58 | 1014.4 |
| 20260905170350 | 33 | 149 | 3.2 | 4.8 | 0.00 | 0.00 | 0.00 | 59 | 1014.5 |
| 20260905165334 | 32 | 131 | 3.2 | 6.4 | 0.00 | 0.00 | 0.00 | 60 | 1014.6 |
| 20260905164337 | 32 | 130 | 1.6 | 9.7 | 0.00 | 0.00 | 0.00 | 61 | 1014.7 |
| 20260905163339 | 32 | 120 | 0.0 | 3.2 | 0.00 | 0.00 | 0.00 | 65 | 1014.7 |
| 20260905162325 | 31 | 154 | 0.0 | 3.2 | 0.00 | 0.00 | 0.00 | 70 | 1014.7 |
| 20260905161330 | 31 | 108 | 1.6 | 4.8 | 0.00 | 0.00 | 0.00 | 68 | 1014.8 |
| 20260905160331 | 31 | 120 | 1.6 | 4.8 | 0.00 | 0.00 | 0.00 | 71 | 1014.8 |
| 20260905155334 | 30 | 137 | 1.6 | 4.8 | 0.00 | 0.00 | 0.00 | 74 | 1014.6 |
| 20260905154342 | 30 | 122 | 1.6 | 4.8 | 0.00 | 0.00 | 0.00 | 77 | 1014.6 |
| 20260905153325 | 30 | 137 | 0.0 | 0.0 | 0.00 | 0.00 | 0.00 | 80 | 1014.7 |
| 20260905152330 | 29 | 137 | 0.0 | 3.2 | 0.00 | 0.00 | 0.00 | 81 | 1014.7 |
| 20260905151334 | 29 | 215 | 0.0 | 4.8 | 0.00 | 0.00 | 0.00 | 83 | 1014.7 |
| 20260905150337 | 29 | 341 | 0.0 | 4.8 | 0.00 | 0.00 | 0.00 | 84 | 1014.7 |
| 20260905145343 | 28 | 158 | 0.0 | 0.0 | 0.00 | 0.00 | 0.00 | 85 | 1014.7 |
| 20260905144328 | 28 | 309 | 0.0 | 0.0 | 0.00 | 0.00 | 0.00 | 87 | 1014.6 |
| 20260905143337 | 28 | 177 | 0.0 | 0.0 | 0.00 | 0.00 | 0.00 | 87 | 1014.7 |
| 20260905142343 | 27 | 360 | 0.0 | 0.0 | 0.00 | 0.00 | 0.00 | 89 | 1014.7 |
| 20260905141327 | 27 | 360 | 0.0 | 0.0 | 0.00 | 0.00 | 0.00 | 91 | 1014.7 |
| 20260905140351 | 26 | 10 | 0.0 | 0.0 | 0.00 | 0.00 | 0.00 | 93 | 1014.6 |
| 20260905135336 | 26 | 10 | 0.0 | 0.0 | 0.00 | 0.00 | 0.00 | 94 | 1014.6 |
| 20260905134341 | 25 | 59 | 0.0 | 0.0 | 0.00 | 0.00 | 0.00 | 95 | 1014.6 |
| 20260905133324 | 25 | 64 | 0.0 | 0.0 | 0.00 | 0.00 | 0.00 | 95 | 1014.5 |
| 20260905132349 | 25 | 21 | 0.0 | 0.0 | 0.00 | 0.00 | 0.00 | 95 | 1014.6 |
| 20260905131337 | 25 | 18 | 0.0 | 0.0 | 0.00 | 0.00 | 0.00 | 95 | 1014.5 |
| 20260905130340 | 24 | 18 | 0.0 | 0.0 | 0.00 | 0.00 | 0.00 | 95 | 1014.3 |
| 20260905125346 | 23 | 28 | 0.0 | 0.0 | 0.00 | 0.00 | 0.00 | 94 | 1014.2 |
| 20260905124329 | 23 | 140 | 0.0 | 0.0 | 0.00 | 0.00 | 0.00 | 94 | 1014.1 |
| 20260905123331 | 23 | 139 | 0.0 | 0.0 | 0.00 | 0.03 | 0.00 | 94 | 1013.9 |
| 20260905122337 | 23 | 139 | 0.0 | 0.0 | 0.00 | 0.03 | 0.00 | 94 | 1013.9 |
| 20260905121324 | 23 | 140 | 0.0 | 0.0 | 0.00 | 0.03 | 0.00 | 94 | 1013.8 |
| 20260905120325 | 23 | 139 | 0.0 | 0.0 | 0.00 | 0.03 | 0.00 | 94 | 1013.7 |
| 20260905115336 | 23 | 139 | 0.0 | 0.0 | 0.00 | 0.03 | 0.00 | 94 | 1013.5 |
| 20260905114340 | 23 | 139 | 0.0 | 0.0 | 0.00 | 0.03 | 0.00 | 93 | 1013.5 |
| 20260905113343 | 23 | 139 | 0.0 | 0.0 | 0.00 | 0.03 | 0.00 | 93 | 1013.5 |
| 20260905112327 | 23 | 139 | 0.0 | 0.0 | 0.00 | 0.03 | 0.00 | 94 | 1013.4 |
| 20260905111333 | 23 | 139 | 0.0 | 0.0 | 0.00 | 0.03 | 0.00 | 94 | 1013.3 |
| 20260905110334 | 23 | 139 | 0.0 | 0.0 | 0.00 | 0.03 | 0.00 | 93 | 1013.1 |
| 20260905105340 | 23 | 139 | 0.0 | 0.0 | 0.00 | 0.03 | 0.00 | 93 | 1013.1 |
| 20260905104330 | 23 | 139 | 0.0 | 0.0 | 0.00 | 0.03 | 0.00 | 93 | 1013.2 |
| 20260905103330 | 23 | 139 | 0.0 | 0.0 | 0.00 | 0.03 | 0.00 | 93 | 1013.2 |
| 20260905102336 | 23 | 139 | 0.0 | 0.0 | 0.00 | 0.03 | 0.00 | 93 | 1013.0 |
| 20260905101342 | 23 | 139 | 0.0 | 0.0 | 0.00 | 0.03 | 0.00 | 93 | 1012.9 |
| 20260905100325 | 23 | 139 | 0.0 | 0.0 | 0.00 | 0.03 | 0.00 | 93 | 1012.8 |
| 20260905095331 | 23 | 139 | 0.0 | 0.0 | 0.00 | 0.03 | 0.00 | 93 | 1012.9 |
| 20260905094337 | 23 | 139 | 0.0 | 0.0 | 0.00 | 0.03 | 0.00 | 93 | 1012.8 |
| 20260905093339 | 24 | 139 | 0.0 | 0.0 | 0.00 | 0.03 | 0.00 | 93 | 1012.9 |
| 20260905092328 | 24 | 139 | 0.0 | 0.0 | 0.00 | 0.03 | 0.00 | 93 | 1013.0 |
| 20260905091353 | 24 | 139 | 0.0 | 0.0 | 0.00 | 0.03 | 0.00 | 93 | 1013.1 |
| 20260905090354 | 24 | 139 | 0.0 | 0.0 | 0.00 | 0.03 | 0.00 | 91 | 1013.0 |
| 20260905085359 | 24 | 139 | 0.0 | 0.0 | 0.00 | 0.03 | 0.00 | 93 | 1013.0 |
| 20260905084343 | 24 | 139 | 0.0 | 0.0 | 0.00 | 0.03 | 0.00 | 93 | 1013.0 |
| 20260905083349 | 24 | 139 | 0.0 | 0.0 | 0.00 | 0.03 | 0.00 | 92 | 1012.9 |
| 20260905082353 | 24 | 139 | 0.0 | 0.0 | 0.00 | 0.03 | 0.00 | 92 | 1012.9 |
| 20260905081358 | 24 | 139 | 0.0 | 0.0 | 0.00 | 0.03 | 0.00 | 92 | 1013.0 |
| 20260905080340 | 25 | 139 | 0.0 | 0.0 | 0.00 | 0.03 | 0.00 | 92 | 1013.1 |
| 20260905075326 | 24 | 139 | 0.0 | 0.0 | 0.00 | 0.03 | 0.00 | 92 | 1013.0 |
| 20260905074336 | 24 | 139 | 0.0 | 0.0 | 0.00 | 0.03 | 0.00 | 91 | 1013.0 |
| 20260905073339 | 25 | 139 | 0.0 | 0.0 | 0.00 | 0.03 | 0.00 | 91 | 1013.1 |
| 20260905072324 | 25 | 139 | 0.0 | 0.0 | 0.00 | 0.03 | 0.00 | 91 | 1013.3 |
| 20260905071329 | 25 | 139 | 0.0 | 0.0 | 0.00 | 0.03 | 0.00 | 89 | 1013.4 |
| 20260905070332 | 25 | 139 | 0.0 | 0.0 | 0.00 | 0.03 | 0.00 | 90 | 1013.4 |
| 20260905065337 | 25 | 139 | 0.0 | 0.0 | 0.00 | 0.03 | 0.00 | 90 | 1013.4 |
| 20260905064404 | 25 | 139 | 0.0 | 0.0 | 0.00 | 0.03 | 0.00 | 90 | 1013.5 |
| 20260905063404 | 26 | 139 | 0.0 | 1.6 | 0.00 | 0.03 | 0.00 | 89 | 1013.5 |
| 20260905062332 | 26 | 127 | 0.0 | 3.2 | 0.00 | 0.03 | 0.00 | 89 | 1013.7 |
| 20260905061337 | 26 | 168 | 0.0 | 0.0 | 0.00 | 0.03 | 0.00 | 89 | 1013.7 |
| 20260905060341 | 26 | 168 | 0.0 | 0.0 | 0.00 | 0.03 | 0.00 | 88 | 1013.8 |
| 20260905055326 | 26 | 168 | 0.0 | 0.0 | 0.00 | 0.03 | 0.00 | 88 | 1013.7 |
| 20260905054353 | 26 | 168 | 0.0 | 0.0 | 0.00 | 0.03 | 0.00 | 88 | 1013.7 |
| 20260905053336 | 26 | 168 | 0.0 | 1.6 | 0.00 | 0.03 | 0.00 | 87 | 1013.6 |
| 20260905052340 | 26 | 168 | 0.0 | 1.6 | 0.00 | 0.03 | 0.00 | 87 | 1013.5 |
| 20260905051326 | 26 | 171 | 0.0 | 1.6 | 0.00 | 0.03 | 0.00 | 87 | 1013.5 |
| 20260905050350 | 26 | 171 | 0.0 | 3.2 | 0.00 | 0.03 | 0.00 | 87 | 1013.6 |
| 20260905045336 | 26 | 171 | 0.0 | 1.6 | 0.00 | 0.03 | 0.03 | 86 | 1013.7 |
| 20260905044341 | 26 | 171 | 0.0 | 1.6 | 0.00 | 0.03 | 0.03 | 85 | 1013.8 |
| 20260905043343 | 26 | 171 | 0.0 | 1.6 | 0.00 | 0.03 | 0.03 | 85 | 1013.9 |
| 20260905042329 | 26 | 168 | 0.0 | 1.6 | 0.00 | 0.03 | 0.03 | 85 | 1013.9 |
| 20260905041355 | 27 | 137 | 0.0 | 1.6 | 0.00 | 0.03 | 0.03 | 84 | 1014.0 |
| 20260905040339 | 27 | 137 | 0.0 | 3.2 | 0.00 | 0.03 | 0.03 | 83 | 1014.0 |
| 20260905035325 | 27 | 126 | 3.2 | 6.4 | 0.00 | 0.03 | 0.03 | 83 | 1014.0 |
| 20260905034333 | 27 | 124 | 3.2 | 4.8 | 0.00 | 0.03 | 0.03 | 82 | 1014.0 |
| 20260905033334 | 27 | 132 | 3.2 | 3.2 | 0.00 | 0.03 | 0.03 | 82 | 1014.1 |
| 20260905032340 | 27 | 135 | 3.2 | 6.4 | 0.00 | 0.03 | 0.03 | 81 | 1014.0 |
| 20260905031325 | 27 | 124 | 3.2 | 4.8 | 0.00 | 0.03 | 0.03 | 81 | 1014.0 |
| 20260905030329 | 27 | 128 | 1.6 | 4.8 | 0.00 | 0.03 | 0.03 | 80 | 1013.9 |
| 20260905025334 | 28 | 125 | 3.2 | 4.8 | 0.00 | 0.03 | 0.03 | 79 | 1013.9 |
| 20260905024340 | 28 | 128 | 3.2 | 4.8 | 0.00 | 0.03 | 0.03 | 79 | 1013.9 |
| 20260905023343 | 28 | 131 | 3.2 | 6.4 | 0.00 | 0.03 | 0.03 | 78 | 1013.7 |
| 20260905022332 | 28 | 128 | 3.2 | 4.8 | 0.00 | 0.03 | 0.03 | 77 | 1013.4 |
| 20260905021339 | 28 | 133 | 3.2 | 6.4 | 0.00 | 0.03 | 0.03 | 77 | 1013.3 |
| 20260905020342 | 28 | 137 | 1.6 | 3.2 | 0.00 | 0.03 | 0.03 | 77 | 1013.2 |
| 20260905015326 | 28 | 137 | 1.6 | 3.2 | 0.00 | 0.03 | 0.03 | 76 | 1013.1 |
| 20260905014331 | 28 | 137 | 3.2 | 6.4 | 0.00 | 0.03 | 0.03 | 75 | 1013.0 |
| 20260905013354 | 29 | 128 | 3.2 | 8.0 | 0.03 | 0.03 | 0.03 | 75 | 1012.9 |
| 20260905012337 | 29 | 115 | 4.8 | 9.7 | 0.03 | 0.03 | 0.03 | 74 | 1012.7 |
| 20260905011342 | 29 | 143 | 3.2 | 6.4 | 0.03 | 0.03 | 0.03 | 73 | 1012.6 |
| 20260905010329 | 30 | 104 | 1.6 | 4.8 | 0.03 | 0.03 | 0.03 | 72 | 1012.6 |
| 20260905005334 | 30 | 119 | 3.2 | 6.4 | 0.03 | 0.03 | 0.03 | 71 | 1012.5 |
| 20260905004400 | 30 | 143 | 1.6 | 1.6 | 0.03 | 0.03 | 0.03 | 68 | 1012.5 |
| 20260905003342 | 31 | 127 | 0.0 | 1.6 | 0.00 | 0.00 | 0.00 | 68 | 1012.3 |
| 20260905002328 | 31 | 127 | 1.6 | 3.2 | 0.00 | 0.00 | 0.00 | 65 | 1012.3 |
| 20260905001333 | 31 | 122 | 1.6 | 3.2 | 0.00 | 0.00 | 0.00 | 64 | 1012.3 |
| 20260905000356 | 31 | 136 | 1.6 | 6.4 | 0.00 | 0.00 | 0.00 | 62 | 1012.3 |
| 20260904235341 | 32 | 139 | 3.2 | 9.7 | 0.00 | 0.00 | 0.00 | 62 | 1012.1 |
| 20260904234331 | 32 | 124 | 4.8 | 8.0 | 0.00 | 0.00 | 0.00 | 60 | 1012.1 |
| 20260904233334 | 32 | 137 | 3.2 | 9.7 | 0.00 | 0.00 | 0.00 | 64 | 1012.0 |
| 20260904232340 | 32 | 138 | 4.8 | 11.3 | 0.00 | 0.00 | 0.00 | 64 | 1012.0 |
| 20260904231344 | 32 | 133 | 6.4 | 12.9 | 0.00 | 0.00 | 0.00 | 63 | 1011.9 |
| 20260904230346 | 32 | 112 | 1.6 | 6.4 | 0.00 | 0.00 | 0.00 | 63 | 1012.1 |
| 20260904225327 | 32 | 126 | 1.6 | 4.8 | 0.00 | 0.00 | 0.00 | 62 | 1012.1 |
| 20260904224332 | 32 | 39 | 0.0 | 3.2 | 0.00 | 0.00 | 0.00 | 63 | 1012.1 |
| 20260904223334 | 32 | 129 | 1.6 | 3.2 | 0.00 | 0.00 | 0.00 | 63 | 1012.3 |
| 20260904222339 | 32 | 129 | 1.6 | 4.8 | 0.00 | 0.00 | 0.00 | 66 | 1012.5 |
| 20260904221328 | 32 | 126 | 1.6 | 6.4 | 0.00 | 0.00 | 0.00 | 66 | 1012.5 |
| 20260904220352 | 32 | 120 | 3.2 | 9.7 | 0.00 | 0.00 | 0.00 | 67 | 1012.5 |
| 20260904215335 | 31 | 147 | 0.0 | 3.2 | 0.00 | 0.00 | 0.00 | 68 | 1012.6 |
| 20260904214342 | 32 | 129 | 3.2 | 4.8 | 0.00 | 0.00 | 0.00 | 68 | 1012.6 |
| 20260904213326 | 32 | 360 | 0.0 | 8.0 | 0.00 | 0.00 | 0.00 | 69 | 1012.7 |
| 20260904212351 | 32 | 137 | 1.6 | 3.2 | 0.00 | 0.00 | 0.00 | 68 | 1012.8 |
| 20260904211333 | 32 | 34 | 0.0 | 3.2 | 0.00 | 0.00 | 0.00 | 68 | 1012.8 |
| 20260904210337 | 31 | 83 | 1.6 | 6.4 | 0.00 | 0.00 | 0.00 | 69 | 1013.0 |
| 20260904205327 | 31 | 322 | 0.0 | 3.2 | 0.00 | 0.00 | 0.00 | 70 | 1013.1 |
| 20260904204333 | 31 | 111 | 0.0 | 3.2 | 0.00 | 0.00 | 0.00 | 71 | 1013.3 |
| 20260904203333 | 31 | 86 | 0.0 | 4.8 | 0.00 | 0.00 | 0.00 | 72 | 1013.4 |